Location: Molino di Ancona
(43.6167°N, 13.3667°E)
Time: 02:32:19
(UTC+00:00)

Cosmos 1850 Rocket - Pass Details

Date: 15 December 2019
Orbit: 754 x 786 km, 74.0° (Epoch: 22 January)

Event Time Altitude Azimuth Distance (km) Brightness Sun altitude
Exits shadow 03:38:28 59° 74° (ENE) 904 4.5 -30.5°
Drops below altitude 10° 03:43:35 10° 147° (SSE) 2,335 6.9 -29.6°
Sets 03:45:59 0° 151° (SSE) 3,256 7.7 -29.2°
